Flag for Spain Weather past 2 weeks in Linares, Spain

Now
61 °F

Clear.


Feels Like: 61 °F
Forecast: 61 / 87 °F
Wind: No wind

Location: Granada / Aeropuerto

Current Time: Oct 21, 2014 at 12:12:05 AM

Latest Report: Oct 20, 2014 at 11:30 PM


Visibility: 10 mi

Pressure: 30.21 "Hg

Humidity: 63%

Dew point: 48 °F

Location of LinaresLocation

Historic Weather in Linares — Graph

°F

Linares temperature yesterday

Maximum temperature yesterday: 90 °F (at 3:30 PM)
Minimum temperature yesterday: 55 °F (at 5:00 AM)
Average temperature yesterday: 71 °F

Past Weeks' High & Low Weather Summary

 TemperatureHumidityPressure
High91 °F (Oct 19, 3:30 PM)100% (Oct 6, 9:00 AM)30.21 "Hg (Oct 6, 9:00 AM)
Low46 °F (Oct 7, 8:30 AM)15% (Oct 19, 3:30 PM)29.80 "Hg (Oct 11, 5:00 PM)
Average64 °F70%30.03 "Hg
* Reported Oct 5 10:00 PM — Oct 20 10:30 PM, Linares, Weather by CustomWeather, © 2014

Note: Actual official high and low records may vary slightly from our data, if they occured in-between our weather recording intervals... More about our weather records

Advertising

Linares weather history for previous 24 hours

 ConditionsComfort  
Time TempWeatherWind HumidityBarometerVisibility
10:30 PM
Oct 20
64 °FClear.5 mph56%30.21 "Hg10 mi
10:00 PM64 °FClear.2 mph60%30.21 "Hg10 mi
9:30 PM66 °FClear.1 mph64%30.21 "Hg10 mi
9:00 PM66 °FClear.1 mph52%30.18 "Hg10 mi
8:30 PM72 °FPassing clouds.7 mph47%30.18 "HgN/A
8:00 PM73 °FSunny.6 mph44%30.18 "Hg10 mi
7:30 PM77 °FSunny.5 mph39%30.15 "Hg10 mi
7:00 PM81 °FSunny.6 mph32%30.15 "Hg10 mi
6:30 PM84 °FPassing clouds.7 mph23%30.15 "HgN/A
6:00 PM86 °FSunny.6 mph24%30.15 "Hg10 mi
5:30 PM86 °FSunny.7 mph24%30.12 "Hg10 mi
5:00 PM88 °FSunny.6 mph22%30.12 "Hg10 mi
4:30 PM88 °FPassing clouds.6 mph22%30.12 "HgN/A
4:00 PM90 °FSunny.2 mph22%30.12 "Hg10 mi
3:30 PM90 °FSunny.2 mph24%30.12 "Hg10 mi
3:00 PM88 °FPassing clouds.5 mph22%30.15 "HgN/A
2:30 PM88 °FSunny.1 mph22%30.15 "Hg10 mi
2:00 PM84 °FSunny.2 mph27%30.18 "Hg10 mi
1:30 PM82 °FPassing clouds.3 mph28%30.18 "HgN/A
1:00 PM81 °FSunny.1 mph30%30.18 "Hg10 mi
12:30 PM79 °FSunny.2 mph32%30.21 "Hg10 mi
12:00 PM77 °FPassing clouds.5 mph32%30.21 "HgN/A
11:30 AM73 °FPassing clouds.3 mph36%30.21 "HgN/A
11:00 AM73 °FSunny.1 mph36%30.21 "Hg10 mi
10:30 AM70 °FSunny.2 mph43%30.21 "Hg10 mi
10:00 AM66 °FPassing clouds.6 mph49%30.18 "HgN/A
9:30 AM59 °FSunny.2 mph68%30.18 "Hg10 mi
9:00 AM57 °FClear.2 mph67%30.18 "Hg10 mi
8:30 AM59 °FClear.5 mph59%30.15 "Hg10 mi
8:00 AM59 °FClear.7 mph59%30.15 "Hg10 mi
7:30 AM57 °FClear.5 mph67%30.15 "Hg10 mi
5:00 AM55 °FClear.1 mph67%30.15 "Hg10 mi
4:30 AM57 °FClear.No wind67%30.15 "Hg10 mi
4:00 AM59 °FClear.3 mph59%30.15 "Hg10 mi
3:30 AM61 °FClear.2 mph59%30.15 "Hg10 mi
3:00 AM66 °FClear.2 mph43%30.15 "Hg10 mi
2:30 AM59 °FClear.No wind68%30.15 "Hg10 mi
2:00 AM59 °FClear.1 mph72%30.15 "Hg10 mi
1:30 AM61 °FClear.2 mph68%30.15 "Hg10 mi
1:00 AM61 °FClear.No wind68%30.15 "Hg10 mi
12:30 AM63 °FClear.2 mph64%30.15 "Hg10 mi
12:00 AM64 °FClear.2 mph52%30.15 "Hg10 mi
Weather by CustomWeather, © 2014

See weather overviewHow to use our weather pages